Powrót do katalogu

YAOGAN-43 02B

AktywnyMilitariaVLEO
NORAD 60946·PAYLOAD·🇨🇳 China

Wystrzelony Sep 3, 2024 z Xichang Satellite Launch Center

Loading…

Następne Przeloty (najbliższe 24 godziny)

TLE

ŚwieżeSource: Space-Track

Epoka: Sep 14, 2026, 14:16 UTC

1 60946U 24156B   26257.59448183  .00008626  00000-0  35955-3 0  9999
2 60946  34.9967 355.7113 0000713 254.6099 105.4537 15.22967905113080

Śledź YAOGAN-43 02B w czasie rzeczywistym z AllMySat

Download on the App Store